Погода в Пуэрто-Мальдонадо

Перу     12°34′51″S   69°12′07″W
темп.,
°C
ветер,
м/с
пор.,
м/с
влажн.,
%
обл.,
%
осадки,
мм/ч
давл.,
гПа
погр.,
м
30 ноября, вт
вт3001:00+22з1199100 0.6 100845
04:00+22зсз1199100 0.0 100822
07:00+24зсз1489100 0.0 1011292
10:00+28з2565100 0.1 10111155
13:00+29зсз3562100 0.6 10081133
16:00+28з276698 0.2 1005623
19:00+24ссз018358 0.2 100711
22:00+23сз1191100 0.0 100916
1 декабря, ср
ср101:00+22сз1590100 0.0 1008155
04:00+21сз159497 0.0 1008136
07:00+26сз267291 0.0 1010506
10:00+33сз374383 0.0 10091955
13:00+35сз3735100 0.0 10052946
16:00+32сз2743100 0.0 1003735
19:00+30ссз175188 0.0 1005322
22:00+27сз126387 0.0 100873
2 декабря, чт
чт201:00+23з1677100 0.0 1008154
04:00+22зсз1687100 0.0 1008150
07:00+26сз2769100 0.0 1010620
10:00+33сз3644100 0.0 10091973
13:00+34зсз2642100 0.1 10052058
16:00+29юз0062100 0.0 100314
19:00+26ссз007784 0.1 100612
22:00+24зюз117653 0.0 100812
3 декабря, пт
пт301:00+23зюз118973 0.2 100713
04:00+22ссз118996 0.0 100714
07:00+26зсз147085 0.0 1009498
10:00+34зсз264383 0.0 10082167
13:00+35зсз2538100 0.1 10042425
16:00+29с1460100 0.1 1002102
19:00+27юз136788 0.1 100589
22:00+25ссв008489 0.1 100713
4 декабря, сб
сб401:00+25з138250 0.5 100698
04:00+23ююз149215 0.3 1007194
07:00+25юз248195 0.4 1010489
10:00+28з249082 1.4 1010829
13:00+28зсз248589 5.1 1008781
16:00+32сз244998 0.3 10031481
19:00+26сз11737 0.3 100515
22:00+24сз11865 0.0 100829